Flag for Tajikistan Weather past 2 weeks in Dushanbe, Tajikistan

Now
43 °F

More clouds than sun.


Feels Like: 41 °F
Forecast: 34 / 44 °F
Wind: 3 mph from Northwest

Location: Dushanbe Airport

Current Time: Dec 18, 2014 at 3:57:47 PM

Latest Report: Dec 18, 2014 at 3:30 PM


Visibility: 3 mi

Pressure: 30.15 "Hg

Humidity: 53%

Dew point: 27 °F

Location of DushanbeLocation

Historic Weather in Dushanbe — Graph

°F

Dushanbe temperature yesterday

Maximum temperature yesterday: 54 °F (at 1:30 PM)
Minimum temperature yesterday: 32 °F (at 7:00 AM)
Average temperature yesterday: 41 °F

Past Weeks' High & Low Weather Summary

 TemperatureHumidityPressure
High57 °F (Dec 16, 12:30 PM)100% (Dec 3, 2:30 PM)30.72 "Hg (Dec 3, 2:30 PM)
Low21 °F (Dec 9, 7:30 AM)13% (Dec 16, 1:00 PM)30.15 "Hg (Dec 11, 2:00 PM)
Average37 °F62%30.35 "Hg
* Reported Dec 3 2:00 PM — Dec 18 2:30 PM, Dushanbe, Weather by CustomWeather, © 2014

Note: Actual official high and low records may vary slightly from our data, if they occured in-between our weather recording intervals... More about our weather records

Advertising

Dushanbe weather history for previous 24 hours

 ConditionsComfort  
Time TempWeatherWind HumidityBarometerVisibility
2:30 PM
Dec 18
43 °FMore clouds than sun.3 mph57%30.15 "Hg3 mi
2:00 PM41 °FFog.1 mph61%30.15 "Hg2 mi
1:30 PM41 °FFog.1 mph57%30.18 "Hg2 mi
1:00 PM41 °FFog.6 mph61%30.18 "Hg2 mi
12:30 PM39 °FFog.3 mph65%30.18 "Hg2 mi
12:00 PM37 °FFog.1 mph65%30.24 "Hg2 mi
11:30 AM37 °FFog.No wind70%30.27 "Hg2 mi
11:00 AM36 °FFog.3 mph75%30.27 "Hg2 mi
10:30 AM37 °FFog.1 mph70%30.30 "Hg1 mi
10:00 AM36 °FFog.1 mph75%30.30 "Hg1 mi
9:30 AM36 °FFog.1 mph75%30.30 "Hg1 mi
8:30 AM32 °FIce fog.3 mph87%30.27 "Hg1 mi
8:00 AM30 °FIce fog.3 mph86%30.27 "Hg1 mi
7:30 AM30 °FIce fog.No wind86%30.27 "Hg1 mi
7:00 AM32 °FIce fog.No wind80%30.27 "Hg1 mi
6:30 AM32 °FIce fog.1 mph80%30.27 "Hg1 mi
6:00 AM30 °FIce fog.1 mph86%30.24 "Hg1 mi
5:30 AM32 °FIce fog.1 mph80%30.24 "Hg2 mi
5:00 AM30 °FIce fog.1 mph86%30.21 "Hg2 mi
4:30 AM30 °FIce fog.No wind86%30.21 "Hg2 mi
4:00 AM34 °FFog.1 mph75%30.21 "Hg2 mi
3:30 AM32 °FIce fog.1 mph80%30.21 "Hg2 mi
3:00 AM34 °FFog.3 mph75%30.21 "Hg2 mi
2:30 AM34 °FFog.3 mph75%30.21 "Hg2 mi
2:00 AM34 °FFog.1 mph75%30.21 "Hg2 mi
1:30 AM34 °FFog.No wind75%30.21 "Hg2 mi
1:00 AM36 °FFog.No wind70%30.21 "Hg2 mi
12:30 AM36 °FPassing clouds.No wind70%30.21 "Hg2 mi
12:00 AM36 °FPassing clouds.1 mph65%30.21 "Hg2 mi
11:30 PM
Dec 17
36 °FPassing clouds.3 mph65%30.21 "Hg2 mi
11:00 PM36 °FPassing clouds.1 mph65%30.21 "Hg2 mi
10:30 PM36 °FPassing clouds.3 mph65%30.21 "Hg2 mi
10:00 PM37 °FOvercast.1 mph60%30.21 "Hg2 mi
9:30 PM37 °FOvercast.3 mph60%30.21 "Hg2 mi
9:00 PM37 °FOvercast.3 mph60%30.21 "Hg2 mi
8:30 PM37 °FOvercast.1 mph60%30.21 "Hg2 mi
8:00 PM37 °FOvercast.1 mph56%30.21 "Hg2 mi
7:30 PM39 °FOvercast.1 mph56%30.21 "Hg2 mi
7:00 PM39 °FOvercast.1 mph56%30.21 "Hg2 mi
6:30 PM41 °FOvercast.1 mph53%30.21 "Hg2 mi
6:00 PM41 °FOvercast.1 mph57%30.21 "Hg2 mi
5:30 PM45 °FOvercast.1 mph46%30.18 "Hg2 mi
5:00 PM46 °FOvercast.3 mph43%30.18 "Hg4 mi
4:30 PM48 °FOvercast.3 mph40%30.18 "Hg4 mi
4:00 PM52 °FOvercast.6 mph32%30.18 "Hg5 mi
3:30 PM52 °FOvercast.3 mph30%30.18 "Hg6 mi
3:00 PM54 °FOvercast.3 mph28%30.18 "Hg4 mi
Weather by CustomWeather, © 2014

See weather overviewHow to use our weather pages